This is the latest recevied weather packets stored in our database for station/object KF7SOJ. If no packets are shown the sender has not sent any weather packets the latest 10 day(s).
| Time | Temp. | Humidity | Pressure | Rain* | Wind** | Luminosity | Snow |
|---|---|---|---|---|---|---|---|
| 1777925564 | 12.78° C | 40% | 930.5 hPa | 0 mm | - | 301 W/m² | - |
| 1777925262 | 12.22° C | 37% | 930.4 hPa | 0 mm | - | 294 W/m² | - |
| 1777924958 | 12.22° C | 36% | 930.6 hPa | 0 mm | - | 325 W/m² | - |
| 1777924655 | 12.22° C | 34% | 930.7 hPa | 0 mm | - | 292 W/m² | - |
| 1777924350 | 12.22° C | 34% | 930.5 hPa | 0 mm | - | 267 W/m² | - |
| 1777924048 | 12.22° C | 34% | 930.5 hPa | 0 mm | - | 329 W/m² | - |
| 1777923743 | 12.22° C | 34% | 930.6 hPa | 0 mm | - | 329 W/m² | - |
| 1777923440 | 12.22° C | 34% | 930.6 hPa | 0 mm | - | 329 W/m² | - |
| 1777923138 | 12.22° C | 34% | 930.7 hPa | 0 mm | - | 322 W/m² | - |
| 1777922836 | 11.67° C | 35% | 930.5 hPa | 0 mm | - | 248 W/m² | - |
| 1777922534 | 12.22° C | 37% | 930.6 hPa | 0 mm | - | 286 W/m² | - |
| 1777922232 | 11.67° C | 40% | 930.7 hPa | 0 mm | - | 326 W/m² | - |
| 1777921929 | 11.67° C | 42% | 930.8 hPa | 0 mm | - | 267 W/m² | - |
| 1777921624 | 11.67° C | 41% | 930.6 hPa | 0 mm | - | 216 W/m² | - |
| 1777921320 | 11.67° C | 40% | 930.8 hPa | 0 mm | - | 268 W/m² | - |
| 1777921017 | 11.67° C | 41% | 930.7 hPa | 0 mm | - | 308 W/m² | - |
| 1777920713 | 12.22° C | 42% | 930.6 hPa | 0 mm | - | 300 W/m² | - |
| 1777920410 | 12.22° C | 42% | 930.8 hPa | 0 mm | - | 287 W/m² | - |
| 1777920105 | 11.67° C | 42% | 930.8 hPa | 0 mm | - | 237 W/m² | - |
| 1777919802 | 11.67° C | 42% | 930.8 hPa | 0 mm | - | 226 W/m² | - |
| 1777919499 | 12.22° C | 40% | 930.7 hPa | 0 mm | - | 259 W/m² | - |
| 1777919197 | 12.22° C | 39% | 930.8 hPa | 0 mm | - | 299 W/m² | - |
| 1777918894 | 12.22° C | 40% | 930.8 hPa | 0 mm | - | 330 W/m² | - |
| 1777918592 | 11.67° C | 40% | 930.8 hPa | 0 mm | - | 342 W/m² | - |
| 1777918289 | 11.67° C | 41% | 930.8 hPa | 0 mm | - | 366 W/m² | - |
* Rain latest hour (hover to see other rain measurements)
** Current wind speed in m/s (hover to see current wind gust speed)